EW1637 Weather Reports


Display with metric or nautical units.
time (UTC)temp
F
wind
direction
speed
MPH
gust
MPH
rain 1hr
in
rain 24hr
in
rain mn
in
humidity
%
barometer
mb
20260505124504 36 5 4.0 11.0 0.00 0.01 0.00 92 1008.8
20260505123108 36 323 3.0 11.0 0.00 0.01 0.00 92 1008.5
20260505121623 37 355 3.0 14.0 0.00 0.01 0.00 92 1008.3
20260505120013 38 13 4.0 12.0 0.00 0.01 0.00 92 1008.0
20260505114509 38 355 5.0 14.0 0.00 0.01 0.00 92 1007.8
20260505113007 39 355 5.0 12.0 0.00 0.01 0.00 92 1007.6
20260505111507 39 360 6.0 12.0 0.00 0.01 0.00 92 1007.3
20260505110118 40 5 6.0 11.0 0.00 0.01 0.00 92 1007.0
20260505101547 41 334 4.0 13.0 0.00 0.01 0.00 92 1005.9
20260505100044 43 342 3.0 8.0 0.00 0.01 0.00 92 1005.2
20260505094541 44 312 1.0 6.0 0.00 0.01 0.00 92 1005.4
20260505093039 44 311 1.0 7.0 0.00 0.01 0.00 91 1005.2
20260505091537 45 316 1.0 9.0 0.00 0.01 0.00 91 1005.1
20260505090037 47 355 5.0 10.0 0.00 0.01 0.00 90 1004.6
20260505084530 48 281 2.0 6.0 0.00 0.01 0.00 92 1004.9
20260505083027 48 277 0.0 3.0 0.00 0.01 0.00 92 1004.9
20260505081540 48 276 0.0 0.0 0.00 0.01 0.00 92 1005.0
20260505080027 48 276 0.0 0.0 0.00 0.01 0.00 92 1004.9
20260505074526 48 276 0.0 0.0 0.00 0.01 0.00 92 1004.9
20260505073032 48 276 0.0 0.0 0.00 0.01 0.00 92 1005.2
20260505071543 48 276 0.0 0.0 0.00 0.01 0.00 92 1005.3
20260505070022 48 276 0.0 0.0 0.00 0.01 0.00 92 1005.3
20260505064525 48 276 0.0 0.0 0.00 0.01 0.00 92 1005.2
20260505063020 48 276 0.0 0.0 0.00 0.01 0.00 92 1005.3
20260505061519 48 276 0.0 0.0 0.00 0.01 0.00 92 1005.3
20260505060017 48 276 0.0 0.0 0.00 0.01 0.01 92 1005.4
20260505054516 48 276 0.0 0.0 0.00 0.01 0.01 91 1005.4
20260505053023 48 276 0.0 0.0 0.00 0.01 0.01 91 1004.9
20260505051527 48 276 0.0 0.0 0.00 0.01 0.01 91 1005.1
20260505041516 48 276 0.0 2.0 0.01 0.01 0.01 88 1005.3
20260505040017 48 276 0.0 1.0 0.01 0.01 0.01 87 1005.3
20260505034511 49 276 0.0 4.0 0.01 0.01 0.01 84 1005.3
20260505033010 51 271 0.0 10.0 0.01 0.01 0.01 76 1005.2
20260505031505 53 5 0.0 5.0 0.00 0.00 0.00 66 1004.5
20260505030005 53 24 1.0 9.0 0.00 0.00 0.00 64 1004.1
20260505024602 53 24 2.0 4.0 0.00 0.00 0.00 63 1003.7
20260505023108 54 13 2.0 9.0 0.00 0.00 0.00 62 1003.6
20260505021601 56 17 8.0 14.0 0.00 0.00 0.00 56 1003.2
20260505014558 55 259 0.0 0.0 0.00 0.00 0.00 58 1002.9
20260505013057 55 259 0.0 0.0 0.00 0.00 0.00 57 1002.7
20260505011557 55 259 0.0 0.0 0.00 0.00 0.00 59 1002.8
20260505004554 59 263 3.0 8.0 0.00 0.00 0.00 45 1003.0
20260505003056 61 47 1.0 6.0 0.00 0.00 0.00 39 1002.5
20260505001552 61 360 1.0 7.0 0.00 0.00 0.00 39 1002.3
20260505000100 62 349 5.0 11.0 0.00 0.00 0.00 35 1001.9
20260504234552 62 360 2.0 13.0 0.00 0.00 0.00 34 1001.6
20260504233053 63 323 2.0 10.0 0.00 0.00 0.00 34 1001.5
20260504231550 63 333 5.0 14.0 0.00 0.00 0.00 33 1001.3
20260504230050 64 32 6.0 16.0 0.00 0.00 0.00 32 1001.0
20260504224550 63 34 3.0 9.0 0.00 0.00 0.00 33 1001.1
20260504223049 63 322 6.0 11.0 0.00 0.00 0.00 32 1001.1
20260504221548 64 331 9.0 19.0 0.00 0.00 0.00 31 1000.9
20260504220108 64 27 8.0 18.0 0.00 0.00 0.00 31 1000.5
20260504214553 66 348 11.0 20.0 0.00 0.00 0.00 28 1000.1
20260504213052 67 72 5.0 11.0 0.00 0.00 0.00 24 1000.1
20260504211544 67 355 2.0 8.0 0.00 0.00 0.00 25 1000.2
20260504210043 66 46 3.0 10.0 0.00 0.00 0.00 25 1000.4
20260504204543 67 11 5.0 15.0 0.00 0.00 0.00 24 1000.6
20260504203043 67 347 4.0 11.0 0.00 0.00 0.00 24 1000.7
20260504201542 66 319 6.0 14.0 0.00 0.00 0.00 25 1000.4
20260504200048 65 258 4.0 11.0 0.00 0.00 0.00 27 1001.0
20260504194545 65 130 0.0 10.0 0.00 0.00 0.00 26 1001.2
20260504193039 65 251 5.0 15.0 0.00 0.00 0.00 28 1001.4
20260504191552 68 227 6.0 13.0 0.00 0.00 0.00 23 1000.7
20260504190044 70 319 0.0 4.0 0.00 0.00 0.00 21 1000.5
20260504184552 70 331 4.0 12.0 0.00 0.00 0.00 20 1000.4
20260504183047 72 298 3.0 11.0 0.00 0.00 0.00 20 1000.4
20260504181545 72 23 6.0 13.0 0.00 0.00 0.00 21 1000.4
20260504180035 72 314 6.0 10.0 0.00 0.00 0.00 21 1000.7
20260504174534 72 298 2.0 8.0 0.00 0.00 0.00 22 1000.8
20260504173031 72 279 1.0 8.0 0.00 0.00 0.00 21 1001.3
20260504171529 71 343 3.0 10.0 0.00 0.00 0.00 22 1001.3
20260504150103 61 203 0.0 3.0 0.00 0.00 0.00 30 1002.7